Погода в Рыжево

Россия / Ивановская область     56°40′10″N   41°13′21″E
темп.,
°C
ветер,
м/с
пор.,
м/с
влажн.,
%
обл.,
%
осадки,
мм/ч
давл.,
гПа
погр.,
м
19 апреля, пн
пн1900:00+6в51081100 0.0 1026688
03:00+3всв41084100 0.0 1027478
06:00+2всв51179100 0.0 1027480
09:00+4всв5963100 0.0 1027632
12:00+6в6855100 0.0 10271019
15:00+8в6847100 0.0 10271472
18:00+7в5948100 0.0 10271316
21:00+5всв5115323 0.0 1028775
20 апреля, вт
вт2000:00+2всв513618 0.0 1028537
03:000в4136597 0.0 1027487
06:000в4126552 0.0 1027498
09:00+5в6115182 0.0 1026859
12:00+8вюв51249100 0.0 10241294
15:00+8вюв51250100 0.0 10231456
18:00+9вюв61347100 0.0 10201491
21:00+7в61450100 0.0 10181135
21 апреля, ср
ср2100:00+5вюв61558100 0.1 10151074
03:00+2в71895100 4.0 1011924
06:00+2вюв81796100 1.6 1007896
09:00+4вюв81791100 4.4 10051034
12:00+6вюв81790100 0.6 10031157
15:00+5ю71490100 0.8 10041099
18:00+4ююз61396100 0.1 10071056
21:00+4ююз61186100 0.1 10111120
22 апреля, чт
чт2200:00+4ю41187100 0.0 1013552
03:00+4ю41388100 0.2 1014528
06:00+4ю4119448 0.1 1014467
09:00+7ююз4980100 0.1 1015744
12:00+8ююз487699 0.1 1016993
15:00+10ююз586994 0.3 10171140
18:00+10ююз497448 0.1 1018665
21:00+6ю399179 0.1 1019193
23 апреля, пт
пт2300:00+6ююв3109590 0.1 1019246
03:00+5ююв299596 0.3 1019200
06:00+6ю3109176 0.0 1019231
09:00+12ю496758 0.0 1018534
12:00+15ю585463 0.0 10181506
15:00+16ю5749100 0.6 10162148
18:00+13ю5106596 0.6 1016874
21:00+10ююв4127617 0.7 1015360